TimeCST,TemperatureF,Dew PointF,Humidity,Sea Level PressureIn,VisibilityMPH,Wind Direction,Wind SpeedMPH,Gust SpeedMPH,PrecipitationIn,Events,Conditions,WindDirDegrees,DateUTC
12:52 AM,16.0,6.1,65,30.41,10.0,NNE,5.8,-,N/A,,Clear,20,2013-01-14 06:52:00
1:52 AM,15.1,5.0,64,30.43,10.0,Calm,Calm,-,N/A,,Clear,0,2013-01-14 07:52:00
3:52 AM,6.1,1.9,83,30.44,10.0,Calm,Calm,-,N/A,,Clear,0,2013-01-14 09:52:00
4:52 AM,8.1,3.0,80,30.45,10.0,Calm,Calm,-,N/A,,Clear,0,2013-01-14 10:52:00
5:52 AM,8.1,3.0,80,30.45,10.0,Calm,Calm,-,N/A,,Clear,0,2013-01-14 11:52:00
6:52 AM,9.0,3.9,80,30.49,10.0,WNW,3.5,-,N/A,,Clear,300,2013-01-14 12:52:00
7:52 AM,10.9,6.1,81,30.51,10.0,WNW,4.6,-,N/A,,Clear,290,2013-01-14 13:52:00
8:52 AM,12.9,7.0,77,30.53,10.0,Calm,Calm,-,N/A,,Clear,0,2013-01-14 14:52:00
9:52 AM,19.9,10.9,68,30.50,10.0,NW,3.5,-,N/A,,Clear,310,2013-01-14 15:52:00
10:52 AM,27.0,9.0,47,30.47,10.0,Variable,4.6,-,N/A,,Clear,0,2013-01-14 16:52:00
11:52 AM,27.0,7.0,43,30.43,10.0,Calm,Calm,-,N/A,,Clear,0,2013-01-14 17:52:00
12:52 PM,30.0,8.1,40,30.40,10.0,East,4.6,-,N/A,,Clear,80,2013-01-14 18:52:00
2:52 PM,32.0,7.0,35,30.38,10.0,North,5.8,-,N/A,,Clear,360,2013-01-14 20:52:00
3:52 PM,30.9,7.0,37,30.37,10.0,ENE,9.2,-,N/A,,Clear,60,2013-01-14 21:52:00
4:52 PM,30.0,8.1,40,30.39,10.0,ENE,5.8,-,N/A,,Clear,70,2013-01-14 22:52:00
5:52 PM,26.1,9.0,49,30.38,10.0,NE,3.5,-,N/A,,Clear,40,2013-01-14 23:52:00
6:52 PM,25.0,9.0,51,30.39,10.0,ENE,4.6,-,N/A,,Clear,60,2013-01-15 00:52:00
7:52 PM,24.1,10.0,55,30.40,10.0,NE,3.5,-,N/A,,Clear,50,2013-01-15 01:52:00
8:52 PM,23.0,10.0,58,30.40,10.0,NE,3.5,-,N/A,,Partly Cloudy,50,2013-01-15 02:52:00
9:52 PM,25.0,10.9,55,30.39,10.0,ENE,4.6,-,N/A,,Overcast,60,2013-01-15 03:52:00
10:52 PM,23.0,10.9,60,30.38,10.0,NNE,3.5,-,N/A,,Overcast,30,2013-01-15 04:52:00
11:52 PM,21.9,14.0,72,30.38,10.0,Calm,Calm,-,N/A,,Overcast,0,2013-01-15 05:52:00